| time (UTC) | temp F | wind direction | speed MPH | gust MPH | rain 1hr in | rain 24hr in | rain mn in | humidity % | barometer mb |
| 20260509032940 | 75 | 106 | 3.0 | 7.0 | 0.00 | 0.00 | 0.00 | 96 | 1009.2 |
| 20260509032437 | 75 | 254 | 1.0 | 6.0 | 0.00 | 0.00 | 0.00 | 96 | 1009.2 |
| 20260509031935 | 75 | 135 | 5.0 | 5.0 | 0.00 | 0.00 | 0.00 | 96 | 1009.0 |
| 20260509031432 | 75 | 108 | 3.0 | 4.0 | 0.00 | 0.00 | 0.00 | 96 | 1009.1 |
| 20260509030929 | 75 | 100 | 2.0 | 6.0 | 0.00 | 0.00 | 0.00 | 96 | 1009.1 |
| 20260509030427 | 75 | 143 | 2.0 | 4.0 | 0.00 | 0.00 | 0.00 | 96 | 1008.9 |
| 20260509025924 | 75 | 109 | 0.0 | 4.0 | 0.00 | 0.00 | 0.00 | 96 | 1008.8 |
| 20260509025420 | 75 | 81 | 3.0 | 4.0 | 0.00 | 0.00 | 0.00 | 96 | 1008.9 |
| 20260509024915 | 75 | 107 | 2.0 | 4.0 | 0.00 | 0.00 | 0.00 | 96 | 1008.9 |
| 20260509024411 | 75 | 90 | 0.0 | 4.0 | 0.00 | 0.00 | 0.00 | 95 | 1008.8 |
| 20260509023909 | 75 | 94 | 0.0 | 3.0 | 0.00 | 0.00 | 0.00 | 95 | 1008.9 |
| 20260509023406 | 75 | 90 | 0.0 | 1.0 | 0.00 | 0.00 | 0.00 | 95 | 1008.8 |
| 20260509022902 | 75 | 106 | 0.0 | 3.0 | 0.00 | 0.00 | 0.00 | 95 | 1008.9 |
| 20260509022359 | 75 | 203 | 0.0 | 1.0 | 0.00 | 0.00 | 0.00 | 96 | 1008.7 |
| 20260509021856 | 75 | 73 | 0.0 | 0.0 | 0.00 | 0.00 | 0.00 | 95 | 1008.6 |
| 20260509021353 | 75 | 73 | 0.0 | 0.0 | 0.00 | 0.00 | 0.00 | 95 | 1008.5 |
| 20260509020851 | 75 | 73 | 0.0 | 2.0 | 0.00 | 0.00 | 0.00 | 95 | 1008.6 |
| 20260509020349 | 75 | 90 | 1.0 | 2.0 | 0.00 | 0.00 | 0.00 | 95 | 1008.3 |
| 20260509015846 | 75 | 90 | 0.0 | 2.0 | 0.00 | 0.00 | 0.00 | 95 | 1008.3 |
| 20260509015344 | 75 | 83 | 1.0 | 2.0 | 0.00 | 0.00 | 0.00 | 95 | 1008.4 |
| 20260509014840 | 75 | 82 | 1.0 | 1.0 | 0.00 | 0.00 | 0.00 | 94 | 1008.5 |
| 20260509014337 | 75 | 66 | 0.0 | 1.0 | 0.00 | 0.00 | 0.00 | 94 | 1008.5 |
| 20260509013834 | 75 | 90 | 0.0 | 0.0 | 0.00 | 0.00 | 0.00 | 94 | 1008.3 |
| 20260509013331 | 75 | 66 | 0.0 | 0.0 | 0.00 | 0.00 | 0.00 | 93 | 1008.2 |
| 20260509012827 | 76 | 83 | 1.0 | 1.0 | 0.00 | 0.00 | 0.00 | 93 | 1008.3 |
| 20260509012323 | 76 | 74 | 0.0 | 1.0 | 0.00 | 0.00 | 0.00 | 93 | 1008.2 |
| 20260509011821 | 76 | 54 | 1.0 | 2.0 | 0.00 | 0.00 | 0.00 | 93 | 1008.2 |
| 20260509011318 | 76 | 23 | 1.0 | 2.0 | 0.00 | 0.00 | 0.00 | 92 | 1008.3 |
| 20260509010816 | 76 | 69 | 0.0 | 2.0 | 0.00 | 0.00 | 0.00 | 92 | 1008.3 |
| 20260509010313 | 76 | 90 | 1.0 | 2.0 | 0.00 | 0.00 | 0.00 | 92 | 1008.3 |
| 20260509005810 | 77 | 99 | 0.0 | 1.0 | 0.00 | 0.00 | 0.00 | 92 | 1008.4 |
| 20260509005308 | 77 | 105 | 0.0 | 4.0 | 0.00 | 0.00 | 0.00 | 91 | 1008.1 |
| 20260509004802 | 77 | 90 | 0.0 | 0.0 | 0.00 | 0.00 | 0.00 | 91 | 1008.3 |
| 20260509004259 | 77 | 82 | 0.0 | 2.0 | 0.00 | 0.00 | 0.00 | 91 | 1008.1 |
| 20260509003757 | 77 | 90 | 0.0 | 2.0 | 0.00 | 0.00 | 0.00 | 91 | 1008.3 |
| 20260509003254 | 77 | 90 | 0.0 | 2.0 | 0.00 | 0.00 | 0.00 | 91 | 1008.3 |
| 20260509002751 | 77 | 54 | 0.0 | 2.0 | 0.00 | 0.00 | 0.00 | 90 | 1008.2 |
| 20260509002249 | 77 | 66 | 0.0 | 4.0 | 0.00 | 0.00 | 0.00 | 90 | 1008.1 |
| 20260509001746 | 77 | 270 | 0.0 | 4.0 | 0.00 | 0.00 | 0.00 | 90 | 1008.2 |
| 20260509001242 | 78 | 78 | 2.0 | 2.0 | 0.00 | 0.00 | 0.00 | 90 | 1008.2 |
| 20260509000740 | 78 | 99 | 0.0 | 3.0 | 0.00 | 0.00 | 0.00 | 90 | 1008.5 |
| 20260509000237 | 78 | 90 | 1.0 | 3.0 | 0.00 | 0.00 | 0.00 | 90 | 1008.2 |
| 20260508235734 | 78 | 151 | 0.0 | 2.0 | 0.00 | 0.00 | 0.00 | 89 | 1008.2 |
| 20260508235230 | 78 | 106 | 0.0 | 2.0 | 0.00 | 0.00 | 0.00 | 89 | 1007.9 |
| 20260508234728 | 78 | 103 | 0.0 | 4.0 | 0.00 | 0.00 | 0.00 | 89 | 1008.2 |
| 20260508234224 | 78 | 112 | 2.0 | 3.0 | 0.00 | 0.00 | 0.00 | 88 | 1008.3 |
| 20260508233718 | 78 | 180 | 1.0 | 4.0 | 0.00 | 0.00 | 0.00 | 88 | 1008.2 |
| 20260508233216 | 78 | 77 | 2.0 | 5.0 | 0.00 | 0.00 | 0.00 | 88 | 1008.1 |
| 20260508232713 | 79 | 127 | 3.0 | 4.0 | 0.00 | 0.00 | 0.00 | 87 | 1007.9 |
| 20260508232209 | 79 | 90 | 1.0 | 7.0 | 0.00 | 0.00 | 0.00 | 87 | 1008.0 |
| 20260508231707 | 79 | 83 | 0.0 | 6.0 | 0.00 | 0.00 | 0.00 | 87 | 1007.8 |
| 20260508231203 | 79 | 114 | 0.0 | 3.0 | 0.00 | 0.00 | 0.00 | 87 | 1008.0 |
| 20260508230700 | 79 | 159 | 0.0 | 5.0 | 0.00 | 0.00 | 0.00 | 87 | 1008.1 |
| 20260508230156 | 79 | 157 | 1.0 | 5.0 | 0.00 | 0.00 | 0.00 | 87 | 1008.0 |
| 20260508225655 | 79 | 145 | 4.0 | 6.0 | 0.00 | 0.00 | 0.00 | 86 | 1008.0 |
| 20260508225150 | 79 | 90 | 2.0 | 5.0 | 0.00 | 0.00 | 0.00 | 87 | 1008.2 |
| 20260508224648 | 79 | 150 | 2.0 | 3.0 | 0.00 | 0.00 | 0.00 | 87 | 1008.0 |
| 20260508224146 | 79 | 120 | 1.0 | 5.0 | 0.00 | 0.00 | 0.00 | 88 | 1008.2 |
| 20260508223643 | 78 | 147 | 0.0 | 7.0 | 0.00 | 0.00 | 0.00 | 87 | 1008.4 |
| 20260508223141 | 79 | 155 | 3.0 | 7.0 | 0.00 | 0.00 | 0.00 | 87 | 1008.4 |
| 20260508222638 | 80 | 180 | 0.0 | 5.0 | 0.00 | 0.00 | 0.00 | 86 | 1008.3 |
| 20260508222134 | 79 | 164 | 2.0 | 6.0 | 0.00 | 0.00 | 0.00 | 87 | 1008.0 |
| 20260508221631 | 79 | 86 | 0.0 | 5.0 | 0.00 | 0.00 | 0.00 | 86 | 1007.8 |
| 20260508221126 | 78 | 144 | 2.0 | 3.0 | 0.00 | 0.00 | 0.00 | 86 | 1008.2 |
| 20260508220623 | 78 | 151 | 1.0 | 5.0 | 0.00 | 0.00 | 0.00 | 86 | 1008.5 |
| 20260508220120 | 79 | 36 | 0.0 | 5.0 | 0.00 | 0.00 | 0.00 | 86 | 1008.4 |
| 20260508215617 | 79 | 115 | 2.0 | 3.0 | 0.00 | 0.00 | 0.00 | 85 | 1008.4 |
| 20260508215113 | 79 | 63 | 1.0 | 4.0 | 0.00 | 0.00 | 0.00 | 85 | 1008.3 |
| 20260508214611 | 79 | 206 | 0.0 | 2.0 | 0.00 | 0.00 | 0.00 | 86 | 1008.3 |
| 20260508214107 | 79 | 126 | 0.0 | 3.0 | 0.00 | 0.00 | 0.00 | 86 | 1008.5 |
| 20260508213604 | 80 | 132 | 2.0 | 4.0 | 0.00 | 0.00 | 0.00 | 83 | 1008.4 |
| 20260508213100 | 80 | 32 | 0.0 | 4.0 | 0.00 | 0.00 | 0.00 | 83 | 1008.7 |
| 20260508212557 | 80 | 180 | 0.0 | 3.0 | 0.00 | 0.00 | 0.00 | 82 | 1008.8 |
| 20260508212053 | 81 | 154 | 0.0 | 4.0 | 0.00 | 0.00 | 0.00 | 81 | 1008.7 |
| 20260508211548 | 80 | 23 | 1.0 | 4.0 | 0.00 | 0.00 | 0.00 | 83 | 1008.8 |
| 20260508211045 | 80 | 74 | 0.0 | 2.0 | 0.00 | 0.00 | 0.00 | 83 | 1008.8 |
| 20260508210542 | 80 | 246 | 0.0 | 2.0 | 0.00 | 0.00 | 0.00 | 82 | 1008.9 |
| 20260508210040 | 79 | 220 | 2.0 | 4.0 | 0.00 | 0.00 | 0.00 | 85 | 1009.1 |
| 20260508205536 | 79 | 245 | 0.0 | 3.0 | 0.00 | 0.00 | 0.00 | 84 | 1009.0 |
| 20260508205033 | 80 | 153 | 4.0 | 5.0 | 0.00 | 0.00 | 0.00 | 83 | 1009.2 |
| 20260508204529 | 81 | 120 | 0.0 | 2.0 | 0.00 | 0.00 | 0.00 | 82 | 1009.2 |
| 20260508204025 | 80 | 78 | 3.0 | 3.0 | 0.00 | 0.00 | 0.00 | 83 | 1009.3 |
| 20260508203521 | 80 | 110 | 2.0 | 3.0 | 0.00 | 0.00 | 0.00 | 84 | 1009.4 |
| 20260508203018 | 78 | 195 | 1.0 | 4.0 | 0.00 | 0.00 | 0.00 | 85 | 1009.3 |
| 20260508202515 | 78 | 98 | 1.0 | 5.0 | 0.00 | 0.00 | 0.00 | 84 | 1009.4 |
| 20260508202012 | 78 | 83 | 1.0 | 3.0 | 0.00 | 0.00 | 0.00 | 85 | 1009.6 |
| 20260508201508 | 78 | 73 | 3.0 | 5.0 | 0.00 | 0.00 | 0.00 | 85 | 1009.4 |
| 20260508201005 | 78 | 157 | 1.0 | 4.0 | 0.00 | 0.00 | 0.00 | 86 | 1009.5 |
| 20260508200502 | 78 | 39 | 4.0 | 5.0 | 0.00 | 0.00 | 0.00 | 86 | 1009.8 |
| 20260508195956 | 78 | 70 | 2.0 | 4.0 | 0.00 | 0.00 | 0.00 | 85 | 1009.8 |
| 20260508195454 | 77 | 106 | 0.0 | 4.0 | 0.00 | 0.00 | 0.00 | 85 | 1009.7 |
| 20260508194950 | 77 | 97 | 3.0 | 5.0 | 0.00 | 0.00 | 0.00 | 85 | 1010.0 |
| 20260508194448 | 77 | 65 | 2.0 | 4.0 | 0.00 | 0.00 | 0.00 | 85 | 1010.1 |
| 20260508193944 | 78 | 158 | 3.0 | 4.0 | 0.00 | 0.00 | 0.00 | 83 | 1010.2 |
| 20260508193441 | 78 | 225 | 2.0 | 4.0 | 0.00 | 0.00 | 0.00 | 84 | 1009.9 |
| 20260508192938 | 78 | 65 | 2.0 | 3.0 | 0.00 | 0.00 | 0.00 | 85 | 1009.8 |
| 20260508192435 | 77 | 151 | 0.0 | 3.0 | 0.00 | 0.00 | 0.00 | 84 | 1010.1 |
| 20260508191931 | 78 | 85 | 4.0 | 5.0 | 0.00 | 0.00 | 0.00 | 86 | 1010.1 |
| 20260508191429 | 76 | 221 | 0.0 | 4.0 | 0.00 | 0.00 | 0.00 | 86 | 1010.3 |
| 20260508190925 | 76 | 63 | 5.0 | 8.0 | 0.00 | 0.00 | 0.00 | 87 | 1010.4 |
| 20260508190423 | 77 | 147 | 2.0 | 9.0 | 0.00 | 0.00 | 0.00 | 85 | 1010.4 |
| 20260508185919 | 77 | 160 | 0.0 | 4.0 | 0.00 | 0.00 | 0.00 | 85 | 1010.4 |
| 20260508185417 | 76 | 104 | 3.0 | 5.0 | 0.00 | 0.00 | 0.00 | 87 | 1010.7 |
| 20260508184914 | 77 | 94 | 5.0 | 7.0 | 0.00 | 0.00 | 0.00 | 86 | 1010.6 |
| 20260508184411 | 76 | 90 | 0.0 | 5.0 | 0.00 | 0.00 | 0.00 | 87 | 1010.9 |
| 20260508183907 | 75 | 327 | 3.0 | 5.0 | 0.00 | 0.00 | 0.00 | 86 | 1010.5 |
| 20260508183404 | 76 | 72 | 3.0 | 7.0 | 0.00 | 0.00 | 0.00 | 85 | 1010.7 |
| 20260508182859 | 75 | 0 | 2.0 | 5.0 | 0.00 | 0.00 | 0.00 | 87 | 1010.7 |
| 20260508182356 | 76 | 28 | 3.0 | 4.0 | 0.00 | 0.00 | 0.00 | 87 | 1011.0 |
| 20260508181847 | 75 | 90 | 2.0 | 5.0 | 0.00 | 0.00 | 0.00 | 86 | 1011.1 |
| 20260508181344 | 74 | 145 | 1.0 | 6.0 | 0.00 | 0.00 | 0.00 | 88 | 1011.2 |
| 20260508180841 | 75 | 160 | 0.0 | 4.0 | 0.00 | 0.00 | 0.00 | 85 | 1011.2 |
| 20260508180337 | 74 | 35 | 1.0 | 4.0 | 0.00 | 0.00 | 0.00 | 88 | 1011.5 |
| 20260508175833 | 74 | 151 | 5.0 | 5.0 | 0.00 | 0.00 | 0.00 | 87 | 1011.3 |
| 20260508175330 | 74 | 101 | 3.0 | 7.0 | 0.00 | 0.00 | 0.00 | 87 | 1011.4 |
| 20260508174829 | 74 | 109 | 3.0 | 6.0 | 0.00 | 0.00 | 0.00 | 87 | 1011.3 |
| 20260508174326 | 73 | 39 | 7.0 | 7.0 | 0.00 | 0.00 | 0.00 | 89 | 1011.5 |
| 20260508173822 | 73 | 62 | 5.0 | 8.0 | 0.00 | 0.00 | 0.00 | 87 | 1011.4 |
| 20260508173319 | 73 | 99 | 3.0 | 6.0 | 0.00 | 0.00 | 0.00 | 87 | 1011.7 |
| 20260508172815 | 72 | 15 | 0.0 | 4.0 | 0.00 | 0.00 | 0.00 | 88 | 1011.4 |
| 20260508172312 | 73 | 157 | 3.0 | 6.0 | 0.00 | 0.00 | 0.00 | 88 | 1011.6 |
| 20260508171809 | 73 | 114 | 0.0 | 5.0 | 0.00 | 0.00 | 0.00 | 88 | 1011.8 |
| 20260508171305 | 71 | 66 | 0.0 | 3.0 | 0.00 | 0.00 | 0.00 | 90 | 1011.7 |
| 20260508170802 | 71 | 131 | 0.0 | 5.0 | 0.00 | 0.00 | 0.00 | 92 | 1011.6 |
| 20260508170300 | 71 | 98 | 4.0 | 6.0 | 0.00 | 0.00 | 0.00 | 90 | 1012.1 |
| 20260508165756 | 71 | 152 | 2.0 | 4.0 | 0.00 | 0.00 | 0.00 | 91 | 1012.1 |
| 20260508165253 | 71 | 23 | 3.0 | 4.0 | 0.00 | 0.00 | 0.00 | 88 | 1012.2 |
| 20260508164749 | 71 | 45 | 0.0 | 4.0 | 0.00 | 0.00 | 0.00 | 90 | 1012.2 |
| 20260508164246 | 70 | 66 | 4.0 | 4.0 | 0.00 | 0.00 | 0.00 | 91 | 1012.2 |
| 20260508163744 | 69 | 75 | 4.0 | 5.0 | 0.00 | 0.00 | 0.00 | 91 | 1012.0 |
| 20260508163242 | 69 | 71 | 5.0 | 7.0 | 0.00 | 0.00 | 0.00 | 91 | 1012.1 |
| 20260508162737 | 70 | 66 | 3.0 | 5.0 | 0.00 | 0.00 | 0.00 | 91 | 1012.0 |
| 20260508162234 | 69 | 106 | 5.0 | 7.0 | 0.00 | 0.00 | 0.00 | 91 | 1011.7 |
| 20260508161731 | 69 | 75 | 3.0 | 7.0 | 0.00 | 0.00 | 0.00 | 92 | 1012.0 |
| 20260508161228 | 69 | 59 | 4.0 | 5.0 | 0.00 | 0.00 | 0.00 | 91 | 1012.0 |
| 20260508160726 | 69 | 71 | 6.0 | 9.0 | 0.00 | 0.00 | 0.00 | 91 | 1012.3 |
| 20260508160225 | 69 | 77 | 2.0 | 6.0 | 0.00 | 0.00 | 0.00 | 92 | 1012.0 |
| 20260508155721 | 68 | 39 | 3.0 | 6.0 | 0.00 | 0.00 | 0.00 | 92 | 1012.1 |
| 20260508155218 | 68 | 90 | 1.0 | 10.0 | 0.00 | 0.00 | 0.00 | 92 | 1012.4 |
| 20260508154714 | 68 | 87 | 3.0 | 9.0 | 0.00 | 0.00 | 0.00 | 92 | 1012.4 |
| 20260508154212 | 68 | 22 | 2.0 | 8.0 | 0.00 | 0.00 | 0.00 | 92 | 1012.2 |
| 20260508153708 | 68 | 352 | 2.0 | 5.0 | 0.00 | 0.00 | 0.00 | 93 | 1012.4 |
| 20260508153206 | 67 | 52 | 5.0 | 8.0 | 0.00 | 0.00 | 0.00 | 92 | 1012.5 |
| 20260508152702 | 67 | 79 | 4.0 | 8.0 | 0.00 | 0.00 | 0.00 | 92 | 1012.3 |
| 20260508152158 | 67 | 70 | 5.0 | 9.0 | 0.00 | 0.00 | 0.00 | 92 | 1012.7 |
| 20260508151654 | 67 | 50 | 7.0 | 9.0 | 0.00 | 0.00 | 0.00 | 92 | 1013.1 |
| 20260508151151 | 67 | 19 | 6.0 | 7.0 | 0.00 | 0.00 | 0.00 | 92 | 1013.0 |
| 20260508150648 | 67 | 67 | 5.0 | 5.0 | 0.00 | 0.00 | 0.00 | 92 | 1013.0 |
| 20260508150145 | 68 | 97 | 3.0 | 7.0 | 0.00 | 0.00 | 0.00 | 92 | 1012.6 |
| 20260508145641 | 67 | 103 | 0.0 | 5.0 | 0.00 | 0.00 | 0.00 | 92 | 1013.0 |
| 20260508145137 | 68 | 146 | 0.0 | 3.0 | 0.00 | 0.00 | 0.00 | 91 | 1012.7 |
| 20260508144635 | 68 | 75 | 3.0 | 3.0 | 0.00 | 0.00 | 0.00 | 92 | 1013.0 |
| 20260508144132 | 67 | 101 | 2.0 | 5.0 | 0.00 | 0.00 | 0.00 | 91 | 1012.9 |
| 20260508143630 | 67 | 114 | 2.0 | 5.0 | 0.00 | 0.00 | 0.00 | 91 | 1012.5 |
| 20260508143126 | 66 | 90 | 2.0 | 3.0 | 0.00 | 0.00 | 0.00 | 91 | 1012.7 |
| 20260508142623 | 66 | 82 | 3.0 | 4.0 | 0.00 | 0.00 | 0.00 | 92 | 1012.7 |
| 20260508142120 | 66 | 95 | 0.0 | 4.0 | 0.00 | 0.00 | 0.00 | 92 | 1012.9 |
| 20260508141616 | 66 | 137 | 4.0 | 5.0 | 0.00 | 0.00 | 0.00 | 92 | 1013.1 |
| 20260508141114 | 66 | 86 | 3.0 | 6.0 | 0.00 | 0.00 | 0.00 | 92 | 1012.7 |
| 20260508140611 | 66 | 47 | 6.0 | 6.0 | 0.00 | 0.00 | 0.00 | 91 | 1012.9 |
| 20260508140108 | 66 | 107 | 2.0 | 3.0 | 0.00 | 0.00 | 0.00 | 92 | 1012.9 |
| 20260508135603 | 65 | 98 | 4.0 | 4.0 | 0.00 | 0.00 | 0.00 | 92 | 1013.1 |
| 20260508135059 | 65 | 85 | 3.0 | 6.0 | 0.00 | 0.00 | 0.00 | 92 | 1012.9 |
| 20260508134556 | 64 | 63 | 3.0 | 4.0 | 0.00 | 0.00 | 0.00 | 93 | 1012.7 |
| 20260508134053 | 64 | 85 | 2.0 | 4.0 | 0.00 | 0.00 | 0.00 | 93 | 1012.6 |
| 20260508133550 | 64 | 105 | 2.0 | 7.0 | 0.00 | 0.00 | 0.00 | 93 | 1012.9 |
| 20260508133047 | 64 | 68 | 4.0 | 7.0 | 0.00 | 0.00 | 0.00 | 93 | 1012.9 |
| 20260508132545 | 64 | 93 | 3.0 | 6.0 | 0.00 | 0.00 | 0.00 | 93 | 1012.7 |
| 20260508132041 | 64 | 85 | 2.0 | 5.0 | 0.00 | 0.00 | 0.00 | 93 | 1012.9 |
| 20260508131537 | 63 | 68 | 0.0 | 5.0 | 0.00 | 0.00 | 0.00 | 93 | 1012.9 |
| 20260508131034 | 63 | 57 | 3.0 | 6.0 | 0.00 | 0.00 | 0.00 | 93 | 1013.0 |
| 20260508130531 | 63 | 73 | 6.0 | 6.0 | 0.00 | 0.00 | 0.00 | 92 | 1013.4 |
| 20260508130027 | 63 | 98 | 2.0 | 4.0 | 0.00 | 0.00 | 0.00 | 93 | 1013.3 |
| 20260508125523 | 63 | 354 | 1.0 | 4.0 | 0.00 | 0.00 | 0.00 | 93 | 1013.0 |
| 20260508125021 | 63 | 351 | 3.0 | 4.0 | 0.00 | 0.00 | 0.00 | 93 | 1013.3 |
| 20260508124519 | 63 | 331 | 0.0 | 3.0 | 0.00 | 0.00 | 0.00 | 93 | 1013.5 |
| 20260508124015 | 63 | 27 | 4.0 | 5.0 | 0.00 | 0.00 | 0.00 | 93 | 1013.2 |
| 20260508123514 | 63 | 77 | 2.0 | 3.0 | 0.00 | 0.00 | 0.00 | 93 | 1013.4 |
| 20260508123010 | 63 | 353 | 2.0 | 7.0 | 0.00 | 0.00 | 0.00 | 93 | 1013.4 |
| 20260508122508 | 63 | 36 | 0.0 | 5.0 | 0.00 | 0.00 | 0.00 | 93 | 1013.4 |
| 20260508122004 | 63 | 13 | 5.0 | 5.0 | 0.00 | 0.00 | 0.00 | 93 | 1013.5 |
| 20260508121502 | 63 | 17 | 2.0 | 3.0 | 0.00 | 0.00 | 0.00 | 93 | 1013.7 |
| 20260508121000 | 63 | 52 | 2.0 | 3.0 | 0.00 | 0.00 | 0.00 | 93 | 1013.7 |
| 20260508120457 | 63 | 347 | 3.0 | 3.0 | 0.00 | 0.00 | 0.00 | 93 | 1013.4 |
| 20260508115955 | 63 | 20 | 0.0 | 3.0 | 0.00 | 0.00 | 0.00 | 93 | 1013.5 |
| 20260508115453 | 63 | 352 | 0.0 | 3.0 | 0.00 | 0.00 | 0.00 | 93 | 1013.4 |
| 20260508114949 | 63 | 27 | 3.0 | 3.0 | 0.00 | 0.00 | 0.00 | 93 | 1013.3 |
| 20260508114446 | 63 | 74 | 2.0 | 3.0 | 0.00 | 0.00 | 0.00 | 93 | 1013.2 |
| 20260508113942 | 63 | 19 | 2.0 | 3.0 | 0.00 | 0.00 | 0.00 | 93 | 1013.3 |
| 20260508113440 | 63 | 42 | 3.0 | 5.0 | 0.00 | 0.00 | 0.00 | 93 | 1013.6 |
| 20260508112937 | 63 | 18 | 2.0 | 3.0 | 0.00 | 0.00 | 0.00 | 93 | 1013.4 |
| 20260508112434 | 63 | 10 | 3.0 | 3.0 | 0.00 | 0.00 | 0.00 | 93 | 1013.3 |
| 20260508111930 | 63 | 0 | 0.0 | 3.0 | 0.00 | 0.00 | 0.00 | 93 | 1013.3 |
| 20260508111428 | 63 | 29 | 1.0 | 2.0 | 0.00 | 0.00 | 0.00 | 93 | 1013.3 |
| 20260508110925 | 63 | 71 | 0.0 | 3.0 | 0.00 | 0.00 | 0.00 | 93 | 1012.5 |
| 20260508110423 | 63 | 18 | 2.0 | 3.0 | 0.00 | 0.00 | 0.00 | 93 | 1012.4 |
| 20260508105922 | 63 | 26 | 0.0 | 3.0 | 0.00 | 0.00 | 0.00 | 93 | 1013.0 |
| 20260508105419 | 63 | 18 | 1.0 | 4.0 | 0.00 | 0.00 | 0.00 | 93 | 1013.0 |
| 20260508104916 | 63 | 261 | 0.0 | 2.0 | 0.00 | 0.00 | 0.00 | 93 | 1013.0 |
| 20260508104413 | 63 | 71 | 1.0 | 3.0 | 0.00 | 0.00 | 0.00 | 93 | 1013.1 |
| 20260508103910 | 63 | 0 | 0.0 | 2.0 | 0.00 | 0.00 | 0.00 | 93 | 1013.0 |
| 20260508103407 | 63 | 352 | 0.0 | 3.0 | 0.00 | 0.00 | 0.00 | 93 | 1013.2 |
| 20260508102904 | 63 | 14 | 2.0 | 5.0 | 0.00 | 0.00 | 0.00 | 93 | 1013.4 |
| 20260508102403 | 63 | 32 | 0.0 | 2.0 | 0.00 | 0.00 | 0.00 | 92 | 1013.5 |
| 20260508101859 | 63 | 14 | 2.0 | 3.0 | 0.00 | 0.00 | 0.00 | 92 | 1013.4 |
| 20260508101356 | 63 | 23 | 3.0 | 3.0 | 0.00 | 0.00 | 0.00 | 92 | 1013.2 |
| 20260508100854 | 63 | 7 | 1.0 | 2.0 | 0.00 | 0.00 | 0.00 | 92 | 1013.1 |
| 20260508100353 | 63 | 0 | 0.0 | 2.0 | 0.00 | 0.00 | 0.00 | 92 | 1013.2 |
| 20260508095848 | 63 | 0 | 0.0 | 4.0 | 0.00 | 0.00 | 0.00 | 92 | 1013.0 |
| 20260508095346 | 63 | 30 | 3.0 | 4.0 | 0.00 | 0.00 | 0.00 | 92 | 1013.0 |
| 20260508094842 | 63 | 48 | 2.0 | 6.0 | 0.00 | 0.00 | 0.00 | 92 | 1012.9 |
| 20260508094339 | 63 | 73 | 3.0 | 5.0 | 0.00 | 0.00 | 0.00 | 92 | 1013.0 |
| 20260508093836 | 63 | 102 | 3.0 | 5.0 | 0.00 | 0.00 | 0.00 | 91 | 1013.0 |
| 20260508093334 | 63 | 72 | 5.0 | 5.0 | 0.00 | 0.00 | 0.00 | 91 | 1013.0 |
| 20260508092831 | 63 | 90 | 0.0 | 5.0 | 0.00 | 0.00 | 0.00 | 91 | 1013.1 |
| 20260508092329 | 63 | 36 | 2.0 | 3.0 | 0.00 | 0.00 | 0.00 | 91 | 1013.1 |
| 20260508091827 | 63 | 38 | 2.0 | 3.0 | 0.00 | 0.00 | 0.00 | 91 | 1013.2 |
| 20260508091323 | 63 | 75 | 2.0 | 3.0 | 0.00 | 0.00 | 0.00 | 91 | 1013.2 |
| 20260508090821 | 63 | 74 | 2.0 | 4.0 | 0.00 | 0.00 | 0.00 | 91 | 1013.2 |
| 20260508090320 | 63 | 2 | 3.0 | 5.0 | 0.00 | 0.00 | 0.00 | 91 | 1013.2 |
| 20260508085814 | 63 | 52 | 2.0 | 5.0 | 0.00 | 0.00 | 0.00 | 91 | 1013.0 |
| 20260508085312 | 63 | 354 | 3.0 | 5.0 | 0.00 | 0.00 | 0.00 | 91 | 1013.0 |
| 20260508084808 | 63 | 8 | 0.0 | 4.0 | 0.00 | 0.00 | 0.00 | 91 | 1012.7 |
| 20260508084305 | 63 | 71 | 3.0 | 4.0 | 0.00 | 0.00 | 0.00 | 91 | 1012.9 |
| 20260508083803 | 63 | 48 | 2.0 | 5.0 | 0.00 | 0.00 | 0.00 | 91 | 1012.6 |
| 20260508083300 | 63 | 48 | 2.0 | 4.0 | 0.00 | 0.00 | 0.00 | 91 | 1012.6 |
| 20260508082759 | 62 | 71 | 2.0 | 4.0 | 0.00 | 0.00 | 0.00 | 91 | 1012.7 |
| 20260508082258 | 62 | 353 | 2.0 | 6.0 | 0.00 | 0.00 | 0.00 | 91 | 1012.6 |
| 20260508081755 | 62 | 0 | 3.0 | 4.0 | 0.00 | 0.00 | 0.00 | 92 | 1012.9 |
| 20260508081251 | 62 | 20 | 4.0 | 6.0 | 0.00 | 0.00 | 0.00 | 92 | 1012.9 |
| 20260508080748 | 62 | 28 | 0.0 | 6.0 | 0.00 | 0.00 | 0.00 | 92 | 1012.2 |
| 20260508080247 | 62 | 70 | 2.0 | 5.0 | 0.00 | 0.00 | 0.00 | 92 | 1012.6 |
| 20260508075743 | 62 | 59 | 5.0 | 5.0 | 0.00 | 0.00 | 0.00 | 92 | 1013.0 |
| 20260508075239 | 62 | 90 | 1.0 | 3.0 | 0.00 | 0.00 | 0.00 | 92 | 1013.1 |
| 20260508074737 | 62 | 99 | 2.0 | 5.0 | 0.00 | 0.00 | 0.00 | 92 | 1012.9 |
| 20260508074235 | 62 | 38 | 0.0 | 5.0 | 0.00 | 0.00 | 0.00 | 92 | 1013.1 |
| 20260508073731 | 62 | 0 | 0.0 | 5.0 | 0.00 | 0.00 | 0.00 | 92 | 1013.5 |
| 20260508073230 | 62 | 35 | 1.0 | 2.0 | 0.00 | 0.00 | 0.00 | 92 | 1013.6 |
| 20260508072725 | 62 | 350 | 2.0 | 4.0 | 0.00 | 0.00 | 0.00 | 92 | 1013.8 |
| 20260508072222 | 62 | 5 | 1.0 | 2.0 | 0.00 | 0.00 | 0.00 | 92 | 1013.7 |
| 20260508071719 | 62 | 32 | 0.0 | 4.0 | 0.00 | 0.00 | 0.00 | 92 | 1013.7 |
| 20260508071218 | 62 | 54 | 0.0 | 3.0 | 0.00 | 0.00 | 0.00 | 92 | 1013.7 |
| 20260508070715 | 62 | 22 | 2.0 | 4.0 | 0.00 | 0.00 | 0.00 | 92 | 1014.1 |
| 20260508070214 | 62 | 90 | 0.0 | 2.0 | 0.00 | 0.00 | 0.00 | 92 | 1013.8 |
| 20260508065710 | 62 | 49 | 3.0 | 4.0 | 0.00 | 0.00 | 0.00 | 92 | 1013.9 |
| 20260508065209 | 62 | 90 | 2.0 | 4.0 | 0.00 | 0.00 | 0.00 | 91 | 1013.9 |
| 20260508064706 | 62 | 30 | 3.0 | 3.0 | 0.00 | 0.00 | 0.00 | 92 | 1014.3 |
| 20260508064204 | 62 | 36 | 2.0 | 4.0 | 0.00 | 0.00 | 0.00 | 92 | 1014.0 |
| 20260508063701 | 62 | 36 | 2.0 | 3.0 | 0.00 | 0.00 | 0.00 | 92 | 1014.1 |
| 20260508063159 | 62 | 53 | 0.0 | 3.0 | 0.00 | 0.00 | 0.00 | 92 | 1013.9 |
| 20260508062656 | 62 | 0 | 2.0 | 4.0 | 0.00 | 0.00 | 0.00 | 92 | 1013.8 |
| 20260508062153 | 62 | 53 | 4.0 | 4.0 | 0.00 | 0.00 | 0.00 | 92 | 1013.8 |
| 20260508061650 | 62 | 53 | 3.0 | 6.0 | 0.00 | 0.00 | 0.00 | 92 | 1013.8 |
| 20260508061147 | 62 | 14 | 1.0 | 3.0 | 0.00 | 0.00 | 0.00 | 92 | 1013.8 |
| 20260508060644 | 62 | 45 | 3.0 | 5.0 | 0.00 | 0.00 | 0.00 | 92 | 1013.9 |
| 20260508060141 | 62 | 30 | 2.0 | 4.0 | 0.00 | 0.00 | 0.00 | 92 | 1013.6 |
| 20260508055637 | 62 | 334 | 2.0 | 4.0 | 0.00 | 0.00 | 0.00 | 92 | 1013.6 |
| 20260508055134 | 62 | 8 | 5.0 | 5.0 | 0.00 | 0.00 | 0.00 | 92 | 1013.6 |
| 20260508054630 | 62 | 54 | 1.0 | 5.0 | 0.00 | 0.00 | 0.00 | 92 | 1013.7 |
| 20260508054128 | 62 | 51 | 3.0 | 4.0 | 0.00 | 0.00 | 0.00 | 92 | 1013.6 |
| 20260508053624 | 62 | 3 | 2.0 | 5.0 | 0.00 | 0.00 | 0.00 | 92 | 1013.7 |
| 20260508053122 | 62 | 9 | 2.0 | 4.0 | 0.00 | 0.00 | 0.00 | 92 | 1013.9 |
| 20260508052619 | 62 | 63 | 3.0 | 3.0 | 0.00 | 0.00 | 0.00 | 92 | 1013.9 |
| 20260508052116 | 62 | 40 | 3.0 | 3.0 | 0.00 | 0.00 | 0.00 | 92 | 1013.6 |
| 20260508051612 | 62 | 0 | 1.0 | 3.0 | 0.00 | 0.00 | 0.00 | 92 | 1013.8 |
| 20260508051108 | 62 | 77 | 5.0 | 6.0 | 0.00 | 0.00 | 0.00 | 92 | 1013.6 |
| 20260508050604 | 62 | 75 | 5.0 | 6.0 | 0.00 | 0.00 | 0.00 | 92 | 1013.6 |
| 20260508045558 | 62 | 8 | 0.0 | 3.0 | 0.00 | 0.00 | 0.00 | 92 | 1014.3 |
| 20260508045056 | 62 | 66 | 1.0 | 6.0 | 0.00 | 0.00 | 0.00 | 92 | 1013.4 |
| 20260508044553 | 62 | 61 | 2.0 | 4.0 | 0.00 | 0.00 | 0.00 | 92 | 1014.5 |
| 20260508044049 | 62 | 18 | 0.0 | 3.0 | 0.00 | 0.00 | 0.00 | 93 | 1014.9 |
| 20260508043545 | 62 | 297 | 1.0 | 2.0 | 0.00 | 0.00 | 0.00 | 93 | 1014.8 |
| 20260508043043 | 62 | 300 | 0.0 | 3.0 | 0.00 | 0.00 | 0.00 | 92 | 1014.4 |
| 20260508042539 | 62 | 29 | 0.0 | 0.0 | 0.00 | 0.00 | 0.00 | 92 | 1014.4 |
| 20260508042037 | 62 | 29 | 0.0 | 2.0 | 0.00 | 0.00 | 0.00 | 91 | 1014.2 |
| 20260508041533 | 62 | 74 | 0.0 | 0.0 | 0.00 | 0.00 | 0.00 | 91 | 1014.3 |
| 20260508041030 | 62 | 74 | 0.0 | 2.0 | 0.00 | 0.00 | 0.00 | 91 | 1014.2 |
| 20260508040527 | 62 | 65 | 2.0 | 4.0 | 0.00 | 0.00 | 0.00 | 90 | 1014.1 |
| 20260508040024 | 62 | 27 | 4.0 | 4.0 | 0.00 | 0.00 | 0.00 | 91 | 1014.1 |
| 20260508035521 | 62 | 8 | 0.0 | 2.0 | 0.00 | 0.00 | 0.00 | 91 | 1014.2 |
| 20260508035018 | 62 | 279 | 0.0 | 0.0 | 0.00 | 0.00 | 0.00 | 91 | 1014.2 |
| 20260508034515 | 62 | 15 | 1.0 | 2.0 | 0.00 | 0.00 | 0.00 | 91 | 1014.2 |
| 20260508034012 | 62 | 348 | 0.0 | 2.0 | 0.00 | 0.00 | 0.00 | 91 | 1014.1 |
| 20260508033510 | 62 | 26 | 1.0 | 2.0 | 0.00 | 0.00 | 0.00 | 91 | 1013.8 |